Weather Roundup
Issued by NWS

Home | Current Version | Previous Version | Text Only | Print | Product List | Glossary On
Versions: 1 2 3 4 5 6 7 8 9 10 11 12 13 14 15 16 17 18 19 20 21 22 23 24 25 26 27 28 29 30 31 32 33 34 35 36 37 38 39 40 41 42 43 44 45 46 47 48 49 50
467
NZUS93 KARX 051710
HRRWXR

CURRENT HOURLY OBSERVATIONS ACROSS
MUCH OF THE UPPER MISSISSIPPI VALLEY
NATIONAL WEATHER SERVICE LA CROSSE WI
1200 PM CDT THU MAY 05 2016


...SOUTHEAST MINNESOTA...


CITY           SKY/WX    TMP DP  RH WIND       PRES   REMARKS
ROCHESTER      SUNNY     59  31  34 VRB7      30.09S
ROCHESTER/MAYO FAIR      59  31  34 S3        30.07F
WINONA         SUNNY     61  34  36 E5        30.07F
AUSTIN         SUNNY     61  34  36 SW7       30.07F
ALBERT LEA     SUNNY     63  28  27 SW6       30.06F
DODGE CENTER   SUNNY     63  30  29 SW8       30.07S
PRESTON        SUNNY     58  30  34 W3        30.08S
OWATONNA       SUNNY     66  25  20 W10       30.05F
FARIBAULT      SUNNY     66  30  26 SW10      30.05F
$$

...ELSEWHERE IN MINNESOTA...


CITY           SKY/WX    TMP DP  RH WIND       PRES   REMARKS
MINNEAPOLIS    MOSUNNY   64  31  28 S9        30.03F
INTNL FALLS    SUNNY     75  38  26 W15G22    29.81F
DULUTH         MOSUNNY   63  35  35 SW15      29.94F
RED WING       MOSUNNY   63  30  29 S3        30.04F
REDWOOD FALLS  MOSUNNY   72  32  23 S8        30.02F
MANKATO        SUNNY     64  27  24 SW10      30.05F
WORTHINGTON    SUNNY     67  35  30 S7        30.07F
FAIRMONT       SUNNY     64  34  32 SW8       30.06F
$$

...SOUTHWEST WISCONSIN...


CITY           SKY/WX    TMP DP  RH WIND       PRES   REMARKS
LA CROSSE      SUNNY     59  36  42 NW3       30.07S
PRAIRIE DU CHI SUNNY     59  32  36 N3        30.07F
BOSCOBEL       SUNNY     62  37  39 W7        30.06F
LONE ROCK      SUNNY     59  38  45 NW7       30.06F
PLATTEVILLE    SUNNY     58  39  49 N7        30.06F
FORT MC COY    SUNNY     60  32  35 NW7       30.07S
CAMP DOUGLAS   MOSUNNY   59  36  41 VRB6      30.05F
MAUSTON-NEW LI SUNNY     57  36  45 CALM      30.04F
VIROQUA        FAIR      58  34  40 N3        30.07S
WIS DELLS      SUNNY     58  33  39 N6        30.05F
$$

...ELSEWHERE IN WISCONSIN...


CITY           SKY/WX    TMP DP  RH WIND       PRES   REMARKS
MILWAUKEE      SUNNY     53  39  59 N12G21    30.04S
MADISON        SUNNY     58  39  49 VRB6      30.04F
GREEN BAY      SUNNY     56  40  55 W8        30.03F
EAU CLAIRE       N/A    N/A N/A N/A MISG        N/A
BLACK RVR FLS  FAIR      59  28  30 CALM      30.06S
MEDFORD        SUNNY     56  34  42 W5        30.03F
WAUSAU         SUNNY     60  32  34 VRB3      30.01F
WIS RAPIDS     SUNNY     60  30  32 N7        30.06S
MARSHFIELD     SUNNY     59  32  36 VRB6      30.04S
RICE LAKE      MOSUNNY   61  30  30 SW9       30.04F
$$

...NORTHEAST IOWA...


CITY           SKY/WX    TMP DP  RH WIND       PRES   REMARKS
WATERLOO       CLOUDY    57  34  41 N5        30.09F
DUBUQUE        SUNNY     57  38  48 N6        30.07S
DECORAH        SUNNY     59  32  36 CALM      30.07S
MASON CITY     MOSUNNY   63  32  31 SW6       30.10S
CHARLES CITY   CLOUDY    57  32  38 VRB3      30.09F
OELWEIN        SUNNY     59  36  41 VRB5G13   30.09S
$$

...ELSEWHERE IN IOWA...


CITY           SKY/WX    TMP DP  RH WIND       PRES   REMARKS
DES MOINES     MOSUNNY   64  32  30 CALM      30.10F
IOWA CITY      SUNNY     60  40  47 NE6       30.09F
FORT DODGE     SUNNY     64  37  36 CALM      30.10F
MARSHALLTOWN   CLOUDY    60  33  36 NE6       30.09F
CEDAR RAPIDS   SUNNY     59  40  49 NW5       30.07F
$$

...NORTHERN ILLINOIS...


CITY           SKY/WX    TMP DP  RH WIND       PRES   REMARKS
CHICAGO-OHARE  SUNNY     58  42  55 N12       30.01S
CHICAGO-MIDWAY SUNNY     56  41  57 N12       30.02R
MOLINE         SUNNY     59  38  45 NE6       30.06F
ROCKFORD       SUNNY     59  40  49 N10       30.06S
PEORIA         SUNNY     57  42  57 N9G18     30.04S
$$

NOTE: "FAIR" INDICATES FEW OR NO CLOUDS BELOW 12,000 FEET WITH NO
SIGNIFICANT WEATHER AND/OR OBSTRUCTIONS TO VISIBILITY. WIND
SPEEDS ARE IN MILES-PER-HOUR.




USA.gov is the U.S. government's official web portal to all federal, state and local government web resources and services.